Showing default

COSMOS 2256, 22691

Orbit data source: Space-Track

COSMOS 2256, 22691 is a payload satellite owned by VKS (CIS) in LEO that was launched on Thu, 24 Jun 1993 UTC via a TSIKLON-3 launch vehicle from the Plesetsk Missile And Space Complex (PKMTR). Payloads include a variety of satellites, spacecraft, and rockets equipped with specific instruments for various scientific and technological missions. These include communications satellites like Starlink; space stations such as the ISS; scientific satellites like the Hubble; Earth observation satellites from companies like Planet Labs, Umbra, and HawkEye 360; GPS; miniature CubeSats for education and research; and military/defense satellites.

Loading next visibility...
COSMOS 2256 details
Identifier
22691, 1993-038E
Orbit
LEO
Last TLE update23 hours ago
Origin
Flag of CISVKS (CIS)
ManufacturerNPO PM
MissionDefense Communications
Bus & MotorSTRELA-3, Unknown motor
Mass225 kg wet, 225 kg dry
Launch date (UTC)
1993-06-24 (32 years ago)
Launch vehicle
TSIKLON-3
Launch site
Plesetsk Missile And Space Complex (PKMTR)
Object type
Payload
Rocket body
Debris
Shape & HBRCyl, 1.6 m
Radar Cross Section1.257 m², Large (>1 m²)

Expand to show TLE details & history

TLE from 23 hours ago
0 COSMOS 2256
1 22691U 93038E   25035.41054838  .00000048  00000-0  20159-3 0  9993
2 22691  82.5780 170.3981 0007318  45.5556   9.6602 12.63929813458936
Epoch: 2025-02-04T09:51Z
Definitive object data (Epoch: 2025-02-04T09:51:11.38Z)
Latitude54.63633°
Longitude-101.69176°
Altitude1,410.108 km
Speed7.163 km/s
True Right ascension12h 03m 41s
True Declination54° 29' 15"
Sunlit
Object was in full shadow at TLE epoch
Visualization TLE readout
Latitude75.81002°
Longitude36.32969°
Altitude1,416.733 km
Speed7.16 km/s
Apparent Right ascension22h 28m 26s
Apparent Declination27° 24' 10"
Sunlit
Object is in daylight
Visualization observer readout
Local Sidereal Time10:56:28
Azimuth6.723° NNE
Elevation-22.366°
Doppler factor1
Orbital elements
Apogee altitude1,409.779 km
Perigee altitude1,398.389 km
Semi-major axis7,782.221 km
Eccentricity0.0007318
Inclination82.578°
RAAN170.3981°
Arg. of periapsis45.5556°
True anomaly9.67428°
Mean anomaly9.6602°
Eccentric anomaly9.66724°
Mean motion3.16146 °/min
BSTAR0.00020159
Orbital period113.87 mins
Loading maneuver chart data...
Loading historical data...
Loading historical data...
Loading historical data...
Loading historical data...
Loading historical data...
Loading historical data...
Loading historical data...

COSMOS 2256 Visibility forecast

Observer location: undefined°, undefined

Span
Click to sort rows by Start time (UTC) header in descending order
Start Az.
Max El. time (UTC)
Max El. Az.
Max El.
End time (UTC)
End Az.
14 mins2025-02-05 10:21:53.344Z214.444° SW2025-02-05 10:28:53.344Z285.417° WNW36.335°2025-02-05 10:35:53.344Z354.444° N
5 mins2025-02-05 18:30:53.344Z43.333° NE2025-02-05 18:32:53.344Z58.314° ENE12.527°2025-02-05 18:35:53.344Z80.506° E
14 mins2025-02-05 20:22:53.344Z358.82° N2025-02-05 20:29:53.344Z98.577° ESE43.206°2025-02-05 20:36:53.344Z163.393° S
10 mins2025-02-05 22:18:53.344Z318.394° NNW2025-02-05 22:23:53.344Z275.518° WNW20.911°2025-02-05 22:28:53.344Z235.684° WSW
|